| time (UTC) | temp F | wind direction | speed MPH | gust MPH | rain 1hr in | rain 24hr in | rain mn in | humidity % | barometer mb |
| 20260507193009 | 54 | 340 | 2.0 | 5.0 | 0.00 | 0.00 | 0.00 | 49 | 1010.2 |
| 20260507192948 | 54 | 272 | 2.0 | 6.0 | 0.00 | 0.00 | 0.00 | 48 | 1010.3 |
| 20260507192213 | 54 | 348 | 3.0 | 9.0 | 0.00 | 0.00 | 0.00 | 48 | 1010.4 |
| 20260507191434 | 54 | 268 | 3.0 | 10.0 | 0.00 | 0.00 | 0.00 | 47 | 1010.4 |
| 20260507190904 | 54 | 300 | 3.0 | 7.0 | 0.00 | 0.00 | 0.00 | 47 | 1010.4 |
| 20260507190351 | 55 | 302 | 2.0 | 7.0 | 0.00 | 0.00 | 0.00 | 48 | 1010.4 |
| 20260507185855 | 55 | 5 | 3.0 | 6.0 | 0.00 | 0.00 | 0.00 | 47 | 1010.4 |
| 20260507185318 | 55 | 15 | 2.0 | 6.0 | 0.00 | 0.00 | 0.00 | 47 | 1010.4 |
| 20260507184756 | 55 | 309 | 2.0 | 5.0 | 0.00 | 0.00 | 0.00 | 47 | 1010.5 |
| 20260507184216 | 55 | 313 | 2.0 | 9.0 | 0.00 | 0.00 | 0.00 | 47 | 1010.5 |
| 20260507183657 | 54 | 321 | 2.0 | 9.0 | 0.00 | 0.00 | 0.00 | 48 | 1010.5 |
| 20260507183200 | 54 | 284 | 3.0 | 7.0 | 0.00 | 0.00 | 0.00 | 46 | 1010.5 |
| 20260507182639 | 55 | 268 | 3.0 | 7.0 | 0.00 | 0.00 | 0.00 | 46 | 1010.6 |
| 20260507182122 | 55 | 287 | 3.0 | 17.0 | 0.00 | 0.00 | 0.00 | 46 | 1010.6 |
| 20260507181622 | 55 | 255 | 3.0 | 17.0 | 0.00 | 0.00 | 0.00 | 48 | 1010.6 |
| 20260507181048 | 55 | 207 | 2.0 | 11.0 | 0.00 | 0.00 | 0.00 | 50 | 1010.6 |
| 20260507180544 | 55 | 263 | 3.0 | 11.0 | 0.00 | 0.00 | 0.00 | 49 | 1010.5 |
| 20260507180048 | 55 | 315 | 3.0 | 7.0 | 0.00 | 0.00 | 0.00 | 49 | 1010.6 |
| 20260507175535 | 55 | 20 | 3.0 | 6.0 | 0.00 | 0.00 | 0.00 | 49 | 1010.5 |
| 20260507175036 | 55 | 296 | 2.0 | 12.0 | 0.00 | 0.00 | 0.00 | 49 | 1010.5 |
| 20260507174508 | 55 | 284 | 2.0 | 12.0 | 0.00 | 0.00 | 0.00 | 49 | 1010.7 |
| 20260507173951 | 55 | 250 | 2.0 | 9.0 | 0.00 | 0.00 | 0.00 | 49 | 1010.6 |
| 20260507173420 | 55 | 308 | 2.0 | 11.0 | 0.00 | 0.00 | 0.00 | 50 | 1010.8 |
| 20260507173336 | 55 | 39 | 2.0 | 11.0 | 0.00 | 0.00 | 0.00 | 48 | 1010.8 |
| 20260507172551 | 55 | 266 | 3.0 | 10.0 | 0.00 | 0.00 | 0.00 | 52 | 1010.7 |
| 20260507171815 | 54 | 278 | 4.0 | 10.0 | 0.00 | 0.00 | 0.00 | 51 | 1010.8 |
| 20260507171245 | 55 | 310 | 3.0 | 11.0 | 0.00 | 0.00 | 0.00 | 50 | 1010.6 |
| 20260507170714 | 55 | 336 | 3.0 | 11.0 | 0.00 | 0.00 | 0.00 | 48 | 1010.6 |
| 20260507170206 | 55 | 289 | 2.0 | 6.0 | 0.00 | 0.00 | 0.00 | 49 | 1010.6 |
| 20260507165704 | 56 | 317 | 2.0 | 4.0 | 0.00 | 0.00 | 0.00 | 48 | 1010.6 |
| 20260507165136 | 55 | 300 | 2.0 | 6.0 | 0.00 | 0.00 | 0.00 | 50 | 1010.6 |
| 20260507164636 | 55 | 298 | 2.0 | 6.0 | 0.00 | 0.00 | 0.00 | 50 | 1010.8 |
| 20260507164136 | 56 | 344 | 2.0 | 7.0 | 0.00 | 0.00 | 0.00 | 51 | 1010.6 |
| 20260507163606 | 56 | 311 | 2.0 | 7.0 | 0.00 | 0.00 | 0.00 | 49 | 1010.8 |
| 20260507163030 | 56 | 231 | 2.0 | 5.0 | 0.00 | 0.00 | 0.00 | 51 | 1010.7 |
| 20260507162502 | 55 | 220 | 2.0 | 11.0 | 0.00 | 0.00 | 0.00 | 50 | 1010.6 |
| 20260507161958 | 55 | 326 | 2.0 | 11.0 | 0.00 | 0.00 | 0.00 | 49 | 1010.6 |
| 20260507161458 | 55 | 325 | 2.0 | 11.0 | 0.00 | 0.00 | 0.00 | 52 | 1010.5 |
| 20260507160956 | 56 | 306 | 2.0 | 8.0 | 0.00 | 0.00 | 0.00 | 52 | 1010.7 |
| 20260507160413 | 56 | 276 | 1.0 | 5.0 | 0.00 | 0.00 | 0.00 | 54 | 1010.7 |
| 20260507155856 | 56 | 274 | 1.0 | 5.0 | 0.00 | 0.00 | 0.00 | 52 | 1010.8 |
| 20260507155346 | 56 | 251 | 1.0 | 4.0 | 0.00 | 0.00 | 0.00 | 55 | 1010.8 |
| 20260507154821 | 55 | 245 | 1.0 | 4.0 | 0.00 | 0.00 | 0.00 | 52 | 1010.7 |
| 20260507154304 | 55 | 246 | 1.0 | 3.0 | 0.00 | 0.00 | 0.00 | 57 | 1010.8 |
| 20260507153736 | 54 | 242 | 1.0 | 4.0 | 0.00 | 0.00 | 0.00 | 57 | 1010.5 |
| 20260507153139 | 53 | 238 | 2.0 | 5.0 | 0.00 | 0.00 | 0.00 | 58 | 1010.7 |
| 20260507152642 | 53 | 332 | 1.0 | 5.0 | 0.00 | 0.00 | 0.00 | 59 | 1010.7 |
| 20260507152108 | 53 | 303 | 1.0 | 5.0 | 0.00 | 0.00 | 0.00 | 57 | 1010.8 |
| 20260507151559 | 53 | 303 | 1.0 | 6.0 | 0.00 | 0.00 | 0.00 | 56 | 1010.8 |
| 20260507151048 | 54 | 236 | 1.0 | 6.0 | 0.00 | 0.00 | 0.00 | 57 | 1010.8 |
| 20260507150553 | 54 | 315 | 1.0 | 4.0 | 0.00 | 0.00 | 0.00 | 56 | 1010.8 |
| 20260507150239 | 54 | 263 | 1.0 | 4.0 | 0.00 | 0.00 | 0.00 | 59 | 1010.7 |
| 20260507145500 | 53 | 277 | 1.0 | 4.0 | 0.00 | 0.00 | 0.00 | 60 | 1010.6 |
| 20260507144946 | 53 | 277 | 0.0 | 4.0 | 0.00 | 0.00 | 0.00 | 61 | 1010.6 |
| 20260507144418 | 53 | 315 | 1.0 | 5.0 | 0.00 | 0.00 | 0.00 | 61 | 1010.8 |
| 20260507143836 | 53 | 315 | 1.0 | 5.0 | 0.00 | 0.00 | 0.00 | 62 | 1010.7 |
| 20260507143314 | 53 | 302 | 0.0 | 4.0 | 0.00 | 0.00 | 0.00 | 64 | 1010.7 |
| 20260507142806 | 53 | 299 | 0.0 | 4.0 | 0.00 | 0.00 | 0.00 | 64 | 1010.8 |
| 20260507142306 | 52 | 299 | 1.0 | 4.0 | 0.00 | 0.00 | 0.00 | 61 | 1010.7 |
| 20260507141736 | 53 | 299 | 1.0 | 4.0 | 0.00 | 0.00 | 0.00 | 62 | 1010.7 |
| 20260507141153 | 53 | 298 | 0.0 | 4.0 | 0.00 | 0.00 | 0.00 | 64 | 1010.8 |
| 20260507140834 | 52 | 298 | 1.0 | 4.0 | 0.00 | 0.00 | 0.00 | 64 | 1010.8 |
| 20260507140022 | 52 | 296 | 0.0 | 4.0 | 0.00 | 0.00 | 0.00 | 62 | 1010.8 |
| 20260507135444 | 51 | 296 | 0.0 | 0.0 | 0.00 | 0.00 | 0.00 | 63 | 1011.0 |
| 20260507135139 | 51 | 296 | 0.0 | 0.0 | 0.00 | 0.00 | 0.00 | 67 | 1010.8 |
| 20260507134333 | 51 | 296 | 0.0 | 3.0 | 0.00 | 0.00 | 0.00 | 67 | 1011.0 |
| 20260507133753 | 51 | 309 | 0.0 | 6.0 | 0.00 | 0.00 | 0.00 | 69 | 1011.0 |
| 20260507133228 | 50 | 269 | 1.0 | 5.0 | 0.00 | 0.00 | 0.00 | 70 | 1011.1 |
| 20260507132726 | 50 | 269 | 0.0 | 5.0 | 0.00 | 0.00 | 0.00 | 69 | 1011.0 |
| 20260507132156 | 50 | 262 | 0.0 | 2.0 | 0.00 | 0.00 | 0.00 | 71 | 1010.8 |
| 20260507131607 | 50 | 264 | 0.0 | 2.0 | 0.00 | 0.00 | 0.00 | 73 | 1010.8 |
| 20260507131052 | 49 | 264 | 0.0 | 2.0 | 0.00 | 0.00 | 0.00 | 74 | 1011.0 |
| 20260507130555 | 49 | 264 | 0.0 | 0.0 | 0.00 | 0.00 | 0.00 | 75 | 1010.7 |
| 20260507130008 | 49 | 264 | 0.0 | 2.0 | 0.00 | 0.00 | 0.00 | 76 | 1010.8 |
| 20260507125713 | 49 | 264 | 0.0 | 2.0 | 0.00 | 0.00 | 0.00 | 75 | 1010.8 |
| 20260507124944 | 48 | 263 | 0.0 | 5.0 | 0.00 | 0.00 | 0.00 | 74 | 1010.7 |
| 20260507124639 | 48 | 263 | 0.0 | 5.0 | 0.00 | 0.00 | 0.00 | 75 | 1010.7 |
| 20260507123851 | 48 | 180 | 0.0 | 0.0 | 0.00 | 0.00 | 0.00 | 75 | 1010.7 |
| 20260507123339 | 48 | 180 | 0.0 | 4.0 | 0.00 | 0.00 | 0.00 | 75 | 1011.0 |
| 20260507122814 | 47 | 178 | 0.0 | 4.0 | 0.00 | 0.00 | 0.00 | 75 | 1010.7 |
| 20260507122309 | 47 | 165 | 0.0 | 0.0 | 0.00 | 0.00 | 0.00 | 76 | 1010.6 |
| 20260507122235 | 47 | 165 | 0.0 | 0.0 | 0.00 | 0.00 | 0.00 | 77 | 1010.7 |
| 20260507121151 | 46 | 165 | 0.0 | 2.0 | 0.00 | 0.00 | 0.00 | 78 | 1010.6 |
| 20260507120602 | 46 | 134 | 0.0 | 3.0 | 0.00 | 0.00 | 0.00 | 78 | 1010.5 |
| 20260507120038 | 45 | 134 | 1.0 | 3.0 | 0.00 | 0.00 | 0.00 | 78 | 1010.4 |
| 20260507115538 | 45 | 134 | 1.0 | 3.0 | 0.00 | 0.00 | 0.00 | 79 | 1010.4 |
| 20260507115231 | 45 | 134 | 0.0 | 1.0 | 0.00 | 0.00 | 0.00 | 81 | 1010.4 |
| 20260507114420 | 44 | 134 | 0.0 | 2.0 | 0.00 | 0.00 | 0.00 | 82 | 1010.3 |
| 20260507113905 | 44 | 134 | 0.0 | 3.0 | 0.00 | 0.00 | 0.00 | 83 | 1010.4 |
| 20260507113615 | 44 | 134 | 0.0 | 3.0 | 0.00 | 0.00 | 0.00 | 83 | 1010.5 |
| 20260507112858 | 44 | 134 | 0.0 | 0.0 | 0.00 | 0.00 | 0.00 | 84 | 1010.4 |
| 20260507112307 | 43 | 134 | 0.0 | 0.0 | 0.00 | 0.00 | 0.00 | 84 | 1010.3 |
| 20260507111718 | 43 | 134 | 0.0 | 0.0 | 0.00 | 0.00 | 0.00 | 84 | 1010.3 |
| 20260507111129 | 43 | 134 | 0.0 | 3.0 | 0.00 | 0.00 | 0.00 | 84 | 1010.3 |
| 20260507110557 | 43 | 134 | 1.0 | 3.0 | 0.00 | 0.00 | 0.00 | 84 | 1010.0 |
| 20260507110004 | 43 | 134 | 1.0 | 3.0 | 0.00 | 0.00 | 0.00 | 85 | 1010.0 |
| 20260507105431 | 43 | 134 | 1.0 | 3.0 | 0.00 | 0.00 | 0.00 | 85 | 1009.9 |
| 20260507104901 | 42 | 134 | 1.0 | 4.0 | 0.00 | 0.00 | 0.00 | 85 | 1009.8 |
| 20260507104401 | 42 | 134 | 1.0 | 4.0 | 0.00 | 0.00 | 0.00 | 85 | 1009.8 |
| 20260507103827 | 42 | 134 | 1.0 | 4.0 | 0.00 | 0.01 | 0.00 | 86 | 1009.8 |
| 20260507103521 | 42 | 134 | 1.0 | 3.0 | 0.00 | 0.01 | 0.00 | 86 | 1009.7 |
| 20260507102753 | 42 | 134 | 1.0 | 3.0 | 0.00 | 0.01 | 0.00 | 86 | 1009.7 |
| 20260507102449 | 42 | 134 | 1.0 | 4.0 | 0.00 | 0.01 | 0.00 | 86 | 1009.7 |
| 20260507101922 | 42 | 134 | 2.0 | 4.0 | 0.00 | 0.01 | 0.00 | 86 | 1009.7 |
| 20260507101201 | 42 | 134 | 2.0 | 4.0 | 0.00 | 0.01 | 0.00 | 86 | 1009.8 |
| 20260507100630 | 42 | 134 | 2.0 | 4.0 | 0.00 | 0.01 | 0.00 | 86 | 1009.7 |
| 20260507100350 | 42 | 134 | 2.0 | 4.0 | 0.00 | 0.01 | 0.00 | 86 | 1009.7 |
| 20260507095837 | 42 | 134 | 2.0 | 4.0 | 0.00 | 0.01 | 0.00 | 86 | 1009.7 |
| 20260507095308 | 42 | 134 | 2.0 | 4.0 | 0.00 | 0.01 | 0.00 | 86 | 1009.7 |
| 20260507094537 | 42 | 134 | 2.0 | 4.0 | 0.00 | 0.02 | 0.00 | 86 | 1009.7 |
| 20260507094006 | 42 | 134 | 2.0 | 4.0 | 0.00 | 0.02 | 0.00 | 86 | 1009.7 |
| 20260507093503 | 42 | 134 | 2.0 | 5.0 | 0.00 | 0.03 | 0.00 | 86 | 1009.6 |
| 20260507092956 | 42 | 134 | 2.0 | 5.0 | 0.00 | 0.03 | 0.00 | 86 | 1009.6 |
| 20260507092720 | 42 | 134 | 2.0 | 4.0 | 0.00 | 0.04 | 0.00 | 86 | 1009.7 |
| 20260507091937 | 42 | 134 | 3.0 | 4.0 | 0.00 | 0.04 | 0.00 | 86 | 1009.7 |
| 20260507091410 | 42 | 134 | 3.0 | 4.0 | 0.00 | 0.04 | 0.00 | 86 | 1009.7 |
| 20260507091133 | 42 | 134 | 3.0 | 4.0 | 0.00 | 0.04 | 0.00 | 87 | 1009.8 |
| 20260507090827 | 42 | 134 | 3.0 | 5.0 | 0.00 | 0.04 | 0.00 | 86 | 1009.7 |
| 20260507085816 | 42 | 134 | 3.0 | 5.0 | 0.00 | 0.04 | 0.00 | 87 | 1009.8 |
| 20260507085316 | 42 | 134 | 3.0 | 4.0 | 0.00 | 0.04 | 0.00 | 87 | 1009.7 |
| 20260507084754 | 42 | 134 | 2.0 | 5.0 | 0.00 | 0.04 | 0.00 | 87 | 1009.8 |
| 20260507084226 | 41 | 134 | 1.0 | 5.0 | 0.00 | 0.05 | 0.00 | 87 | 1009.8 |
| 20260507083727 | 41 | 134 | 0.0 | 0.0 | 0.00 | 0.05 | 0.00 | 87 | 1009.8 |
| 20260507083628 | 41 | 134 | 0.0 | 0.0 | 0.00 | 0.06 | 0.00 | 87 | 1009.8 |
| 20260507082556 | 41 | 134 | 0.0 | 0.0 | 0.00 | 0.08 | 0.00 | 86 | 1009.8 |
| 20260507082037 | 41 | 134 | 0.0 | 0.0 | 0.00 | 0.08 | 0.00 | 86 | 1009.8 |
| 20260507081525 | 41 | 134 | 0.0 | 0.0 | 0.00 | 0.09 | 0.00 | 86 | 1009.9 |
| 20260507081016 | 41 | 134 | 0.0 | 0.0 | 0.00 | 0.10 | 0.00 | 86 | 1009.8 |
| 20260507080652 | 41 | 134 | 0.0 | 0.0 | 0.00 | 0.10 | 0.00 | 86 | 1009.8 |
| 20260507075853 | 41 | 134 | 0.0 | 3.0 | 0.00 | 0.11 | 0.00 | 86 | 1009.8 |
| 20260507075527 | 41 | 134 | 0.0 | 3.0 | 0.00 | 0.11 | 0.00 | 85 | 1009.9 |
| 20260507074729 | 42 | 134 | 1.0 | 4.0 | 0.00 | 0.12 | 0.00 | 85 | 1009.8 |
| 20260507074207 | 42 | 134 | 3.0 | 5.0 | 0.00 | 0.12 | 0.00 | 85 | 1009.8 |
| 20260507073710 | 42 | 134 | 3.0 | 5.0 | 0.00 | 0.13 | 0.00 | 85 | 1009.8 |
| 20260507073405 | 42 | 133 | 3.0 | 5.0 | 0.00 | 0.14 | 0.00 | 85 | 1009.9 |
| 20260507072646 | 42 | 132 | 3.0 | 5.0 | 0.00 | 0.14 | 0.00 | 85 | 1009.8 |
| 20260507072116 | 42 | 132 | 3.0 | 4.0 | 0.00 | 0.14 | 0.00 | 85 | 1009.9 |
| 20260507071536 | 42 | 132 | 3.0 | 5.0 | 0.00 | 0.14 | 0.00 | 85 | 1009.9 |
| 20260507071017 | 41 | 132 | 3.0 | 5.0 | 0.00 | 0.15 | 0.00 | 85 | 1010.0 |
| 20260507070441 | 41 | 132 | 3.0 | 5.0 | 0.00 | 0.15 | 0.00 | 86 | 1010.1 |
| 20260507070142 | 41 | 132 | 3.0 | 4.0 | 0.00 | 0.15 | 0.00 | 86 | 1010.1 |
| 20260507065425 | 41 | 131 | 3.0 | 4.0 | 0.00 | 0.15 | 0.00 | 86 | 1010.1 |
| 20260507064852 | 41 | 130 | 3.0 | 4.0 | 0.00 | 0.15 | 0.00 | 87 | 1010.2 |
| 20260507064342 | 41 | 130 | 3.0 | 4.0 | 0.00 | 0.15 | 0.00 | 87 | 1010.2 |
| 20260507063835 | 41 | 130 | 3.0 | 4.0 | 0.00 | 0.16 | 0.00 | 87 | 1010.2 |
| 20260507063308 | 41 | 130 | 3.0 | 4.0 | 0.00 | 0.16 | 0.00 | 87 | 1010.3 |
| 20260507062753 | 41 | 130 | 3.0 | 4.0 | 0.00 | 0.16 | 0.00 | 87 | 1010.3 |
| 20260507062250 | 41 | 130 | 3.0 | 4.0 | 0.00 | 0.16 | 0.00 | 87 | 1010.4 |
| 20260507061725 | 41 | 130 | 3.0 | 4.0 | 0.00 | 0.16 | 0.00 | 87 | 1010.5 |
| 20260507061223 | 41 | 130 | 3.0 | 4.0 | 0.00 | 0.17 | 0.00 | 87 | 1010.5 |
| 20260507060723 | 41 | 130 | 3.0 | 4.0 | 0.00 | 0.17 | 0.00 | 87 | 1010.5 |
| 20260507060147 | 42 | 130 | 3.0 | 4.0 | 0.00 | 0.17 | 0.00 | 86 | 1010.5 |
| 20260507055635 | 42 | 130 | 3.0 | 4.0 | 0.00 | 0.17 | 0.00 | 86 | 1010.6 |
| 20260507055123 | 42 | 130 | 3.0 | 4.0 | 0.00 | 0.17 | 0.00 | 86 | 1010.6 |
| 20260507054622 | 42 | 130 | 2.0 | 4.0 | 0.00 | 0.18 | 0.00 | 85 | 1010.6 |
| 20260507054058 | 42 | 130 | 2.0 | 4.0 | 0.00 | 0.18 | 0.00 | 85 | 1010.6 |
| 20260507053549 | 42 | 130 | 2.0 | 4.0 | 0.00 | 0.19 | 0.00 | 84 | 1010.7 |
| 20260507053050 | 42 | 130 | 2.0 | 4.0 | 0.00 | 0.19 | 0.00 | 84 | 1010.7 |
| 20260507052521 | 42 | 130 | 3.0 | 6.0 | 0.00 | 0.20 | 0.00 | 84 | 1010.8 |
| 20260507051945 | 42 | 129 | 3.0 | 6.0 | 0.00 | 0.21 | 0.00 | 84 | 1010.7 |
| 20260507051636 | 43 | 129 | 3.0 | 4.0 | 0.00 | 0.21 | 0.00 | 84 | 1011.0 |
| 20260507050909 | 43 | 78 | 2.0 | 4.0 | 0.00 | 0.22 | 0.00 | 84 | 1011.1 |
| 20260507050413 | 43 | 78 | 2.0 | 4.0 | 0.00 | 0.22 | 0.00 | 83 | 1011.2 |
| 20260507045831 | 43 | 78 | 2.0 | 4.0 | 0.00 | 0.22 | 0.00 | 83 | 1011.2 |
| 20260507045306 | 43 | 78 | 2.0 | 4.0 | 0.00 | 0.22 | 0.00 | 83 | 1011.1 |
| 20260507044803 | 43 | 77 | 2.0 | 4.0 | 0.00 | 0.22 | 0.00 | 82 | 1011.1 |
| 20260507044307 | 43 | 75 | 2.0 | 5.0 | 0.00 | 0.23 | 0.00 | 82 | 1011.1 |
| 20260507043731 | 43 | 340 | 2.0 | 4.0 | 0.00 | 0.23 | 0.00 | 82 | 1011.1 |
| 20260507043431 | 43 | 338 | 1.0 | 3.0 | 0.00 | 0.23 | 0.00 | 82 | 1011.1 |
| 20260507042903 | 43 | 338 | 0.0 | 2.0 | 0.00 | 0.23 | 0.00 | 82 | 1011.2 |
| 20260507042130 | 43 | 338 | 0.0 | 2.0 | 0.00 | 0.24 | 0.00 | 82 | 1011.2 |
| 20260507041557 | 43 | 338 | 0.0 | 0.0 | 0.00 | 0.24 | 0.00 | 82 | 1011.2 |
| 20260507041031 | 43 | 337 | 0.0 | 0.0 | 0.00 | 0.25 | 0.00 | 82 | 1011.3 |
| 20260507040509 | 43 | 337 | 0.0 | 0.0 | 0.00 | 0.26 | 0.00 | 83 | 1011.4 |
| 20260507035954 | 43 | 337 | 0.0 | 0.0 | 0.00 | 0.26 | 0.26 | 83 | 1011.5 |
| 20260507035435 | 43 | 337 | 0.0 | 0.0 | 0.00 | 0.26 | 0.26 | 83 | 1011.5 |
| 20260507034900 | 43 | 337 | 0.0 | 0.0 | 0.00 | 0.27 | 0.26 | 83 | 1011.5 |
| 20260507034328 | 43 | 337 | 0.0 | 0.0 | 0.00 | 0.28 | 0.26 | 83 | 1011.5 |
| 20260507033801 | 43 | 337 | 0.0 | 0.0 | 0.00 | 0.28 | 0.26 | 83 | 1011.5 |
| 20260507033231 | 43 | 337 | 0.0 | 0.0 | 0.00 | 0.29 | 0.26 | 83 | 1011.7 |
| 20260507032708 | 43 | 337 | 0.0 | 0.0 | 0.00 | 0.30 | 0.26 | 83 | 1011.8 |
| 20260507032137 | 43 | 337 | 0.0 | 0.0 | 0.00 | 0.31 | 0.26 | 83 | 1011.5 |
| 20260507031607 | 43 | 337 | 0.0 | 0.0 | 0.00 | 0.32 | 0.26 | 83 | 1011.7 |
| 20260507031043 | 44 | 337 | 0.0 | 0.0 | 0.00 | 0.36 | 0.26 | 81 | 1011.6 |
| 20260507030537 | 44 | 337 | 0.0 | 0.0 | 0.00 | 0.36 | 0.26 | 80 | 1011.6 |
| 20260507030305 | 44 | 338 | 0.0 | 0.0 | 0.00 | 0.38 | 0.26 | 79 | 1011.7 |
| 20260507025510 | 44 | 337 | 0.0 | 0.0 | 0.00 | 0.40 | 0.26 | 78 | 1011.6 |
| 20260507024934 | 44 | 337 | 0.0 | 0.0 | 0.00 | 0.41 | 0.26 | 78 | 1011.5 |
| 20260507024621 | 44 | 337 | 0.0 | 0.0 | 0.00 | 0.43 | 0.26 | 79 | 1011.5 |
| 20260507023823 | 44 | 337 | 0.0 | 0.0 | 0.00 | 0.44 | 0.26 | 79 | 1011.6 |
| 20260507023243 | 44 | 337 | 0.0 | 0.0 | 0.00 | 0.45 | 0.26 | 79 | 1011.6 |
| 20260507022944 | 44 | 337 | 0.0 | 0.0 | 0.00 | 0.47 | 0.26 | 80 | 1011.6 |
| 20260507022144 | 44 | 337 | 0.0 | 0.0 | 0.00 | 0.48 | 0.26 | 80 | 1011.6 |
| 20260507022047 | 45 | 337 | 0.0 | 0.0 | 0.00 | 0.49 | 0.26 | 79 | 1011.5 |
| 20260507021003 | 45 | 337 | 0.0 | 0.0 | 0.00 | 0.51 | 0.26 | 79 | 1011.5 |
| 20260507020506 | 45 | 337 | 0.0 | 0.0 | 0.00 | 0.53 | 0.26 | 79 | 1011.6 |
| 20260507015946 | 45 | 338 | 0.0 | 0.0 | 0.00 | 0.54 | 0.26 | 78 | 1011.6 |
| 20260507015443 | 45 | 337 | 0.0 | 0.0 | 0.00 | 0.55 | 0.26 | 79 | 1011.5 |
| 20260507014934 | 45 | 337 | 0.0 | 0.0 | 0.00 | 0.55 | 0.26 | 79 | 1011.6 |
| 20260507014415 | 45 | 338 | 0.0 | 0.0 | 0.00 | 0.56 | 0.26 | 78 | 1011.4 |
| 20260507013921 | 45 | 337 | 0.0 | 0.0 | 0.00 | 0.56 | 0.26 | 79 | 1011.4 |
| 20260507013355 | 45 | 337 | 0.0 | 0.0 | 0.00 | 0.56 | 0.26 | 78 | 1011.4 |
| 20260507012900 | 45 | 337 | 0.0 | 0.0 | 0.00 | 0.57 | 0.26 | 78 | 1011.4 |
| 20260507012615 | 45 | 337 | 0.0 | 0.0 | 0.00 | 0.57 | 0.26 | 78 | 1011.4 |
| 20260507011852 | 45 | 337 | 0.0 | 0.0 | 0.00 | 0.57 | 0.26 | 77 | 1011.4 |
| 20260507011325 | 45 | 338 | 0.0 | 0.0 | 0.00 | 0.58 | 0.26 | 76 | 1011.5 |
| 20260507011020 | 45 | 338 | 0.0 | 0.0 | 0.00 | 0.59 | 0.26 | 76 | 1011.5 |
| 20260507010301 | 45 | 337 | 0.0 | 0.0 | 0.00 | 0.60 | 0.26 | 76 | 1011.5 |
| 20260507005727 | 45 | 337 | 0.0 | 0.0 | 0.00 | 0.60 | 0.26 | 76 | 1011.5 |
| 20260507005145 | 45 | 337 | 0.0 | 0.0 | 0.00 | 0.60 | 0.26 | 75 | 1011.4 |
| 20260507004603 | 46 | 337 | 0.0 | 0.0 | 0.00 | 0.61 | 0.26 | 75 | 1011.5 |
| 20260507004012 | 46 | 337 | 0.0 | 0.0 | 0.00 | 0.61 | 0.26 | 74 | 1011.4 |
| 20260507003453 | 46 | 337 | 0.0 | 0.0 | 0.00 | 0.61 | 0.26 | 74 | 1011.6 |
| 20260507002943 | 46 | 338 | 0.0 | 0.0 | 0.00 | 0.61 | 0.26 | 74 | 1011.5 |
| 20260507002425 | 46 | 338 | 0.0 | 0.0 | 0.00 | 0.61 | 0.26 | 74 | 1011.4 |
| 20260507001920 | 46 | 337 | 0.0 | 0.0 | 0.00 | 0.61 | 0.26 | 74 | 1011.3 |
| 20260507001347 | 46 | 337 | 0.0 | 0.0 | 0.00 | 0.61 | 0.26 | 73 | 1011.3 |
| 20260507000815 | 46 | 337 | 0.0 | 0.0 | 0.00 | 0.61 | 0.26 | 73 | 1011.3 |
| 20260507000249 | 47 | 338 | 0.0 | 0.0 | 0.00 | 0.61 | 0.26 | 74 | 1011.4 |
| 20260506235735 | 47 | 337 | 0.0 | 0.0 | 0.00 | 0.62 | 0.26 | 73 | 1011.4 |
| 20260506235215 | 47 | 337 | 0.0 | 0.0 | 0.00 | 0.62 | 0.26 | 73 | 1011.3 |
| 20260506234656 | 47 | 338 | 0.0 | 0.0 | 0.00 | 0.63 | 0.26 | 72 | 1011.3 |
| 20260506234144 | 47 | 337 | 0.0 | 0.0 | 0.00 | 0.63 | 0.26 | 72 | 1011.2 |
| 20260506233624 | 47 | 337 | 0.0 | 0.0 | 0.00 | 0.64 | 0.26 | 71 | 1011.2 |
| 20260506233336 | 47 | 337 | 0.0 | 0.0 | 0.00 | 0.65 | 0.26 | 72 | 1011.2 |
| 20260506232520 | 47 | 337 | 0.0 | 0.0 | 0.00 | 0.67 | 0.26 | 71 | 1011.3 |
| 20260506231941 | 47 | 337 | 0.0 | 0.0 | 0.00 | 0.73 | 0.26 | 70 | 1011.2 |
| 20260506231441 | 47 | 337 | 0.0 | 0.0 | 0.00 | 0.76 | 0.26 | 69 | 1011.2 |
| 20260506230940 | 48 | 337 | 0.0 | 0.0 | 0.00 | 0.76 | 0.26 | 69 | 1011.2 |
| 20260506230350 | 48 | 337 | 0.0 | 0.0 | 0.00 | 0.77 | 0.26 | 68 | 1011.1 |
| 20260506225800 | 48 | 337 | 0.0 | 0.0 | 0.00 | 0.79 | 0.26 | 70 | 1011.2 |
| 20260506225253 | 48 | 337 | 0.0 | 0.0 | 0.00 | 0.81 | 0.26 | 69 | 1011.1 |
| 20260506225011 | 48 | 337 | 0.0 | 0.0 | 0.00 | 0.83 | 0.26 | 70 | 1011.3 |
| 20260506224200 | 48 | 337 | 0.0 | 0.0 | 0.00 | 0.85 | 0.26 | 69 | 1011.2 |
| 20260506223627 | 48 | 337 | 0.0 | 0.0 | 0.00 | 0.86 | 0.26 | 70 | 1011.0 |
| 20260506223032 | 48 | 337 | 0.0 | 1.0 | 0.00 | 0.87 | 0.26 | 70 | 1011.1 |
| 20260506222506 | 48 | 337 | 0.0 | 2.0 | 0.00 | 0.88 | 0.26 | 69 | 1011.0 |
| 20260506221932 | 48 | 336 | 0.0 | 4.0 | 0.00 | 0.91 | 0.26 | 69 | 1011.0 |
| 20260506221409 | 49 | 336 | 0.0 | 4.0 | 0.00 | 0.93 | 0.26 | 69 | 1011.0 |
| 20260506220847 | 48 | 340 | 0.0 | 1.0 | 0.00 | 0.95 | 0.26 | 68 | 1011.0 |
| 20260506220334 | 49 | 340 | 0.0 | 2.0 | 0.00 | 0.97 | 0.26 | 68 | 1010.8 |
| 20260506215748 | 49 | 340 | 0.0 | 1.0 | 0.00 | 0.97 | 0.26 | 67 | 1010.7 |
| 20260506215202 | 49 | 340 | 0.0 | 2.0 | 0.00 | 0.97 | 0.26 | 67 | 1010.4 |
| 20260506214603 | 49 | 340 | 0.0 | 2.0 | 0.00 | 0.98 | 0.26 | 67 | 1010.5 |
| 20260506214042 | 49 | 340 | 0.0 | 3.0 | 0.00 | 1.01 | 0.26 | 68 | 1010.3 |
| 20260506213508 | 49 | 340 | 0.0 | 3.0 | 0.00 | 1.03 | 0.26 | 67 | 1010.4 |
| 20260506212918 | 49 | 16 | 1.0 | 3.0 | 0.00 | 1.06 | 0.26 | 67 | 1010.4 |
| 20260506212332 | 49 | 16 | 1.0 | 6.0 | 0.00 | 1.07 | 0.26 | 66 | 1010.4 |
| 20260506211808 | 49 | 17 | 1.0 | 6.0 | 0.00 | 1.09 | 0.26 | 66 | 1010.4 |
| 20260506211312 | 49 | 348 | 1.0 | 4.0 | 0.00 | 1.11 | 0.26 | 69 | 1010.4 |
| 20260506210748 | 49 | 348 | 1.0 | 4.0 | 0.00 | 1.11 | 0.26 | 67 | 1010.4 |
| 20260506210251 | 49 | 347 | 1.0 | 4.0 | 0.00 | 1.13 | 0.26 | 67 | 1010.4 |
| 20260506205710 | 49 | 346 | 1.0 | 4.0 | 0.00 | 1.16 | 0.26 | 67 | 1010.4 |
| 20260506205413 | 49 | 315 | 0.0 | 3.0 | 0.00 | 1.19 | 0.26 | 67 | 1010.4 |
| 20260506204651 | 49 | 313 | 0.0 | 2.0 | 0.00 | 1.20 | 0.26 | 67 | 1010.4 |
| 20260506204338 | 49 | 310 | 1.0 | 4.0 | 0.00 | 1.25 | 0.26 | 67 | 1010.3 |
| 20260506203819 | 49 | 344 | 1.0 | 4.0 | 0.00 | 1.27 | 0.26 | 69 | 1010.3 |
| 20260506203044 | 49 | 328 | 1.0 | 3.0 | 0.00 | 1.29 | 0.26 | 69 | 1010.4 |
| 20260506202519 | 49 | 327 | 0.0 | 3.0 | 0.00 | 1.31 | 0.26 | 69 | 1010.4 |
| 20260506202031 | 50 | 327 | 1.0 | 3.0 | 0.00 | 1.33 | 0.26 | 68 | 1010.3 |
| 20260506201454 | 50 | 327 | 1.0 | 3.0 | 0.00 | 1.34 | 0.26 | 66 | 1010.4 |
| 20260506201222 | 50 | 327 | 1.0 | 4.0 | 0.00 | 1.35 | 0.26 | 66 | 1010.4 |
| 20260506200441 | 50 | 327 | 2.0 | 5.0 | 0.00 | 1.36 | 0.26 | 67 | 1010.4 |
| 20260506195944 | 51 | 287 | 2.0 | 5.0 | 0.00 | 1.38 | 0.26 | 65 | 1010.4 |
| 20260506195408 | 51 | 287 | 2.0 | 5.0 | 0.00 | 1.40 | 0.26 | 64 | 1010.3 |
| 20260506195114 | 51 | 287 | 2.0 | 5.0 | 0.00 | 1.40 | 0.26 | 62 | 1010.3 |
| 20260506194358 | 51 | 286 | 2.0 | 4.0 | 0.00 | 1.41 | 0.26 | 62 | 1010.1 |
| 20260506193839 | 51 | 286 | 1.0 | 4.0 | 0.00 | 1.42 | 0.26 | 64 | 1010.3 |
| 20260506193333 | 51 | 341 | 1.0 | 4.0 | 0.00 | 1.42 | 0.26 | 65 | 1010.3 |